This demonstration page uses our WeatherBlox Daily Observations layout. Learn more.

Left ArrowRight Arrow

44.89941, -97.11507

Hourly Observations for May 16, 2022

Temp ( °F °C ) Dew Point ( °F °C ) Humidity (%) Winds ( mph kmh ) Pressure ( in mb ) Visibility ( mi km ) Precip ( " mm )
12:53 am 00:53 Clear 51 10.6 41 5 69 69 W 6 9 29.96 1015 10 16 0.00 0.00
1:53 am 01:53 Clear 53 11.7 41 5 64 64 W 3 6 29.96 1015 10 16 0.00 0.00
2:53 am 02:53 Partly Cloudy 48 8.9 41 5 77 77 WSW 9 15 29.97 1015 10 16 0.00 0.00
3:53 am 03:53 Cloudy 52 11.1 41 5 66 66 WNW 5 7 29.97 1015 10 16 0.00 0.00
4:53 am 04:53 Partly Cloudy 52 11.1 43 6.1 72 72 WNW 5 7 29.97 1015 10 16 0.00 0.00
5:53 am 05:53 Mostly Cloudy 51 10.6 41 5 69 69 WNW 6 9 29.98 1015 10 16 0.00 0.00
6:53 am 06:53 Mostly Cloudy 49 9.4 45 7.2 86 86 N 3 6 29.99 1016 10 16 0.00 0.00
7:53 am 07:53 Partly Cloudy 56 13.3 45 7.2 67 67 VRB 3 6 30.01 1016 10 16 0.00 0.00
8:53 am 08:53 Sunny 60 15.6 45 7.2 58 58 NNW 6 9 30.01 1016 10 16 0.00 0.00
9:53 am 09:53 Sunny 63 17.2 43 6.1 48 48 NNW 6 9 30.01 1016 10 16 0.00 0.00
10:53 am 10:53 Sunny 66 18.9 39 3.9 37 37 VRB 3 6 30.01 1016 10 16 0.00 0.00
11:53 am 11:53 Sunny 68 20 35 1.7 30 30 Calm 30.00 1016 10 16 0.00 0.00
12:53 pm 12:53 Sunny 69 20.6 36 2.2 30 30 N 7 11 29.99 1016 10 16 0.00 0.00
1:53 pm 13:53 Sunny 70 21.1 36 2.2 29 29 VRB 3 6 29.97 1015 10 16 0.00 0.00
2:53 pm 14:53 Sunny 71 21.7 36 2.2 28 28 undefined N/A 29.97 1015 10 16 0.00 0.00
3:53 pm 15:53 Sunny 71 21.7 38 3.3 30 30 NW 7 11 29.95 1014 10 16 0.00 0.00
4:53 pm 16:53 Sunny 71 21.7 37 2.8 29 29 Calm 29.93 1014 10 16 0.00 0.00
5:53 pm 17:53 Sunny 69 20.6 40 4.4 35 35 NNE 5 7 29.93 1014 10 16 0.00 0.00
6:53 pm 18:53 Sunny 67 19.4 40 4.4 37 37 ENE 12 19 29.93 1014 10 16 0.00 0.00
7:53 pm 19:53 Sunny 65 18.3 41 5 42 42 E 14 22 29.93 1014 10 16 0.00 0.00
8:53 pm 20:53 Clear 62 16.7 42 5.6 48 48 ENE 13 20 29.94 1014 10 16 0.00 0.00
9:53 pm 21:53 Partly Cloudy 60 15.6 42 5.6 52 52 E 12 19 29.95 1014 10 16 0.00 0.00
10:53 pm 22:53 Mostly Cloudy 60 15.6 39 3.9 46 46 E 13 20 29.94 1014 10 16 0.00 0.00
11:53 pm 23:53 Mostly Cloudy 59 15 40 4.4 49 49 ESE 8 13 29.95 1014 10 16 0.00 0.00

Powered by AerisWeather